Location: Unspecified
(48.2082°N, 0.0000°E)
Time: 20:24:55
(UTC+00:00)

Tiros 1 despin weight - Pass Details

Date: 25 June 2019
Orbit: 594 x 642 km, 48.2° (Epoch: 16 July)

Event Time Altitude Azimuth Distance (km) Brightness Sun altitude
Rises 02:14:25 0° 281° (W) 2,840 ? -12.5°
Reaches altitude 10° 02:16:43 10° 279° (W) 1,932 ? -12.3°
Maximum altitude 02:21:06 70° 197° (SSW) 633 ? -12.0°
Drops below altitude 10° 02:25:30 10° 113° (ESE) 1,924 ? -11.6°
Sets 02:27:47 0° 111° (ESE) 2,826 ? -11.3°
